Location: Unspecified
(52.4292°N, 19.3359°E)
Time: 00:31:05
(UTC+02:00)

SR - Pass Details

Date: 02 June 2024
Orbit: 580 x 858 km, 66.7° (Epoch: 12 June)

Event Time Altitude Azimuth Distance (km) Brightness Sun altitude
Rises 19:49:08 0° 297° (WNW) 3,010 ? 7.8°
Reaches altitude 10° 19:52:40 10° 324° (NW) 2,037 ? 7.3°
Maximum altitude 19:54:57 13° 354° (N) 1,780 ? 7.0°
Drops below altitude 10° 19:57:10 10° 24° (NNE) 1,973 ? 6.7°
Sets 20:00:30 0° 52° (NE) 2,840 ? 6.2°
